Year,Month,Day,Hour,Minute,Value (Times are PST for temperature in C)
2009,09,21,00,00,10.30
2009,09,21,00,01,10.30
2009,09,21,00,02,10.30
2009,09,21,00,03,10.30
2009,09,21,00,04,10.40
2009,09,21,00,05,10.40
2009,09,21,00,06,10.40
2009,09,21,00,07,10.40
2009,09,21,00,08,10.40
2009,09,21,00,09,10.50
2009,09,21,00,10,10.50
2009,09,21,00,11,10.50
2009,09,21,00,12,10.50
2009,09,21,00,13,10.50
2009,09,21,00,14,10.50
2009,09,21,00,15,10.50
2009,09,21,00,16,10.50
2009,09,21,00,17,10.50
2009,09,21,00,18,10.50
2009,09,21,00,19,10.50
2009,09,21,00,20,10.50
2009,09,21,00,21,10.50
2009,09,21,00,22,10.40
2009,09,21,00,23,10.40
2009,09,21,00,24,10.40
2009,09,21,00,25,10.40
2009,09,21,00,26,10.40
2009,09,21,00,27,10.40
2009,09,21,00,28,10.40
2009,09,21,00,29,10.40
2009,09,21,00,30,10.40
2009,09,21,00,31,10.40
2009,09,21,00,32,10.40
2009,09,21,00,33,10.40
2009,09,21,00,34,10.40
2009,09,21,00,35,10.40
2009,09,21,00,36,10.40
2009,09,21,00,37,10.40
2009,09,21,00,38,10.40
2009,09,21,00,39,10.40
2009,09,21,00,40,10.40
2009,09,21,00,41,10.40
2009,09,21,00,42,10.30
2009,09,21,00,43,10.30
2009,09,21,00,44,10.30
2009,09,21,00,45,10.30
2009,09,21,00,46,10.30
2009,09,21,00,47,10.30
2009,09,21,00,48,10.30
2009,09,21,00,49,10.30
2009,09,21,00,50,10.30
2009,09,21,00,51,10.30
2009,09,21,00,52,10.30
2009,09,21,00,53,10.30
2009,09,21,00,54,10.30
2009,09,21,00,55,10.30
2009,09,21,00,56,10.30
2009,09,21,00,57,10.30
2009,09,21,00,58,10.30
2009,09,21,00,59,10.30
2009,09,21,01,00,10.30
2009,09,21,01,01,10.30
2009,09,21,01,02,10.30
2009,09,21,01,03,10.30
2009,09,21,01,04,10.30
2009,09,21,01,05,10.30
2009,09,21,01,06,10.20
2009,09,21,01,07,10.20
2009,09,21,01,08,10.20
2009,09,21,01,09,10.20
2009,09,21,01,10,10.20
2009,09,21,01,11,10.20
2009,09,21,01,12,10.20
2009,09,21,01,13,10.20
2009,09,21,01,14,10.20
2009,09,21,01,15,10.20
2009,09,21,01,16,10.10
2009,09,21,01,17,10.10
2009,09,21,01,18,10.10
2009,09,21,01,19,10.10
2009,09,21,01,20,10.10
2009,09,21,01,21,10.10
2009,09,21,01,22,10.00
2009,09,21,01,23,10.00
2009,09,21,01,24,10.00
2009,09,21,01,25,10.00
2009,09,21,01,26,10.00
2009,09,21,01,27,10.00
2009,09,21,01,28,9.90
2009,09,21,01,29,9.90
2009,09,21,01,30,9.90
2009,09,21,01,31,9.90
2009,09,21,01,32,9.80
2009,09,21,01,33,9.80
2009,09,21,01,34,9.80
2009,09,21,01,35,9.80
2009,09,21,01,36,9.80
2009,09,21,01,37,9.80
2009,09,21,01,38,9.80
2009,09,21,01,39,9.70
2009,09,21,01,40,9.70
2009,09,21,01,41,9.70
2009,09,21,01,42,9.70
2009,09,21,01,43,9.70
2009,09,21,01,44,9.70
2009,09,21,01,45,9.70
2009,09,21,01,46,9.70
2009,09,21,01,47,9.70
2009,09,21,01,48,9.70
2009,09,21,01,49,9.70
2009,09,21,01,50,9.70
2009,09,21,01,51,9.70
2009,09,21,01,52,9.70
2009,09,21,01,53,9.80
2009,09,21,01,54,9.80
2009,09,21,01,55,9.80
2009,09,21,01,56,9.80
2009,09,21,01,57,9.80
2009,09,21,01,58,9.80
2009,09,21,01,59,9.80
2009,09,21,02,00,9.80
2009,09,21,02,01,9.80
2009,09,21,02,02,9.70
2009,09,21,02,03,9.70
2009,09,21,02,04,9.70
2009,09,21,02,05,9.70
2009,09,21,02,06,9.70
2009,09,21,02,07,9.70
2009,09,21,02,08,9.70
2009,09,21,02,09,9.70
2009,09,21,02,10,9.70
2009,09,21,02,11,9.70
2009,09,21,02,12,9.70
2009,09,21,02,13,9.70
2009,09,21,02,14,9.70
2009,09,21,02,15,9.60
2009,09,21,02,16,9.60
2009,09,21,02,17,9.60
2009,09,21,02,18,9.70
2009,09,21,02,19,9.60
2009,09,21,02,20,9.60
2009,09,21,02,21,9.60
2009,09,21,02,22,9.60
2009,09,21,02,23,9.60
2009,09,21,02,24,9.60
2009,09,21,02,25,9.60
2009,09,21,02,26,9.60
2009,09,21,02,27,9.60
2009,09,21,02,28,9.60
2009,09,21,02,29,9.60
2009,09,21,02,30,9.60
2009,09,21,02,31,9.60
2009,09,21,02,32,9.60
2009,09,21,02,33,9.60
2009,09,21,02,34,9.60
2009,09,21,02,35,9.60
2009,09,21,02,36,9.60
2009,09,21,02,37,9.60
2009,09,21,02,38,9.60
2009,09,21,02,39,9.60
2009,09,21,02,40,9.60
2009,09,21,02,41,9.60
2009,09,21,02,42,9.60
2009,09,21,02,43,9.60
2009,09,21,02,44,9.60
2009,09,21,02,45,9.60
2009,09,21,02,46,9.60
2009,09,21,02,47,9.60
2009,09,21,02,48,9.60
2009,09,21,02,49,9.60
2009,09,21,02,50,9.60
2009,09,21,02,51,9.60
2009,09,21,02,52,9.60
2009,09,21,02,53,9.60
2009,09,21,02,54,9.60
2009,09,21,02,55,9.60
2009,09,21,02,56,9.60
2009,09,21,02,57,9.60
2009,09,21,02,58,9.70
2009,09,21,02,59,9.70
2009,09,21,03,00,9.70
2009,09,21,03,01,9.70
2009,09,21,03,02,9.70
2009,09,21,03,03,9.70
2009,09,21,03,04,9.70
2009,09,21,03,05,9.70
2009,09,21,03,06,9.70
2009,09,21,03,07,9.70
2009,09,21,03,08,9.70
2009,09,21,03,09,9.70
2009,09,21,03,10,9.70
2009,09,21,03,11,9.80
2009,09,21,03,12,9.80
2009,09,21,03,13,9.80
2009,09,21,03,14,9.80
2009,09,21,03,15,9.80
2009,09,21,03,16,9.80
2009,09,21,03,17,9.80
2009,09,21,03,18,9.80
2009,09,21,03,19,9.80
2009,09,21,03,20,9.80
2009,09,21,03,21,9.80
2009,09,21,03,22,9.80
2009,09,21,03,23,9.80
2009,09,21,03,24,9.80
2009,09,21,03,25,9.80
2009,09,21,03,26,9.80
2009,09,21,03,27,9.80
2009,09,21,03,28,9.80
2009,09,21,03,29,9.80
2009,09,21,03,30,9.80
2009,09,21,03,31,9.80
2009,09,21,03,32,9.80
2009,09,21,03,33,9.80
2009,09,21,03,34,9.80
2009,09,21,03,35,9.80
2009,09,21,03,36,9.80
2009,09,21,03,37,9.80
2009,09,21,03,38,9.80
2009,09,21,03,39,9.80
2009,09,21,03,40,9.80
2009,09,21,03,41,9.80
2009,09,21,03,42,9.80
2009,09,21,03,43,9.80
2009,09,21,03,44,9.80
2009,09,21,03,45,9.80
2009,09,21,03,46,9.80
2009,09,21,03,47,9.80
2009,09,21,03,48,9.80
2009,09,21,03,49,9.80
2009,09,21,03,50,9.80
2009,09,21,03,51,9.80
2009,09,21,03,52,9.80
2009,09,21,03,53,9.80
2009,09,21,03,54,9.80
2009,09,21,03,55,9.80
2009,09,21,03,56,9.80
2009,09,21,03,57,9.80
2009,09,21,03,58,9.80
2009,09,21,03,59,9.80
2009,09,21,04,00,9.80
2009,09,21,04,01,9.80
2009,09,21,04,02,9.80
2009,09,21,04,03,9.80
2009,09,21,04,04,9.80
2009,09,21,04,05,9.80
2009,09,21,04,06,9.80
2009,09,21,04,07,9.80
2009,09,21,04,08,9.80
2009,09,21,04,09,9.80
2009,09,21,04,10,9.80
2009,09,21,04,11,9.80
2009,09,21,04,12,9.80
2009,09,21,04,13,9.80
2009,09,21,04,14,9.80
2009,09,21,04,15,9.80
2009,09,21,04,16,9.80
2009,09,21,04,17,9.80
2009,09,21,04,18,9.80
2009,09,21,04,19,9.70
2009,09,21,04,20,9.70
2009,09,21,04,21,9.70
2009,09,21,04,22,9.70
2009,09,21,04,23,9.70
2009,09,21,04,24,9.70
2009,09,21,04,25,9.70
2009,09,21,04,26,9.70
2009,09,21,04,27,9.70
2009,09,21,04,28,9.70
2009,09,21,04,29,9.70
2009,09,21,04,30,9.70
2009,09,21,04,31,9.70
2009,09,21,04,32,9.70
2009,09,21,04,33,9.70
2009,09,21,04,34,9.70
2009,09,21,04,35,9.70
2009,09,21,04,36,9.70
2009,09,21,04,37,9.70
2009,09,21,04,38,9.70
2009,09,21,04,39,9.70
2009,09,21,04,40,9.70
2009,09,21,04,41,9.70
2009,09,21,04,42,9.70
2009,09,21,04,43,9.80
2009,09,21,04,44,9.80
2009,09,21,04,45,9.80
2009,09,21,04,46,9.80
2009,09,21,04,47,9.80
2009,09,21,04,48,9.70
2009,09,21,04,49,9.70
2009,09,21,04,50,9.70
2009,09,21,04,51,9.70
2009,09,21,04,52,9.70
2009,09,21,04,53,9.70
2009,09,21,04,54,9.70
2009,09,21,04,55,9.70
2009,09,21,04,56,9.70
2009,09,21,04,57,9.70
2009,09,21,04,58,9.70
2009,09,21,04,59,9.80
2009,09,21,05,00,9.80
2009,09,21,05,01,9.80
2009,09,21,05,02,9.80
2009,09,21,05,03,9.80
2009,09,21,05,04,9.80
2009,09,21,05,05,9.80
2009,09,21,05,06,9.80
2009,09,21,05,07,9.80
2009,09,21,05,08,9.80
2009,09,21,05,09,9.80
2009,09,21,05,10,9.80
2009,09,21,05,11,9.80
2009,09,21,05,12,9.80
2009,09,21,05,13,9.90
2009,09,21,05,14,9.90
2009,09,21,05,15,9.90
2009,09,21,05,16,9.90
2009,09,21,05,17,9.90
2009,09,21,05,18,9.90
2009,09,21,05,19,9.90
2009,09,21,05,20,10.00
2009,09,21,05,21,10.00
2009,09,21,05,22,10.00
2009,09,21,05,23,9.90
2009,09,21,05,24,9.90
2009,09,21,05,25,9.90
2009,09,21,05,26,9.90
2009,09,21,05,27,9.90
2009,09,21,05,28,9.90
2009,09,21,05,29,9.90
2009,09,21,05,30,9.90
2009,09,21,05,31,9.90
2009,09,21,05,32,9.90
2009,09,21,05,33,9.90
2009,09,21,05,34,9.80
2009,09,21,05,35,9.80
2009,09,21,05,36,9.80
2009,09,21,05,37,9.80
2009,09,21,05,38,9.80
2009,09,21,05,39,9.80
2009,09,21,05,40,9.80
2009,09,21,05,41,9.80
2009,09,21,05,42,9.80
2009,09,21,05,43,9.80
2009,09,21,05,44,9.80
2009,09,21,05,45,9.80
2009,09,21,05,46,9.80
2009,09,21,05,47,9.80
2009,09,21,05,48,9.80
2009,09,21,05,49,9.80
2009,09,21,05,50,9.80
2009,09,21,05,51,9.80
2009,09,21,05,52,9.80
2009,09,21,05,53,9.80
2009,09,21,05,54,9.80
2009,09,21,05,55,9.80
2009,09,21,05,56,9.80
2009,09,21,05,57,9.80
2009,09,21,05,58,9.80
2009,09,21,05,59,9.90
2009,09,21,06,00,9.90
2009,09,21,06,01,9.90
2009,09,21,06,02,9.90
2009,09,21,06,03,9.90
2009,09,21,06,04,9.90
2009,09,21,06,05,9.90
2009,09,21,06,06,9.90
2009,09,21,06,07,10.00
2009,09,21,06,08,10.00
2009,09,21,06,09,10.00
2009,09,21,06,10,10.00
2009,09,21,06,11,10.10
2009,09,21,06,12,10.10
2009,09,21,06,13,10.20
2009,09,21,06,14,10.20
2009,09,21,06,15,10.20
2009,09,21,06,16,10.20
2009,09,21,06,17,10.20
2009,09,21,06,18,10.20
2009,09,21,06,19,10.30
2009,09,21,06,20,10.30
2009,09,21,06,21,10.30
2009,09,21,06,22,10.30
2009,09,21,06,23,10.30
2009,09,21,06,24,10.30
2009,09,21,06,25,10.40
2009,09,21,06,26,10.40
2009,09,21,06,27,10.40
2009,09,21,06,28,10.40
2009,09,21,06,29,10.40
2009,09,21,06,30,10.40
2009,09,21,06,31,10.40
2009,09,21,06,32,10.30
2009,09,21,06,33,10.30
2009,09,21,06,34,10.30
2009,09,21,06,35,10.20
2009,09,21,06,36,10.20
2009,09,21,06,37,10.20
2009,09,21,06,38,10.10
2009,09,21,06,39,10.10
2009,09,21,06,40,10.10
2009,09,21,06,41,10.00
2009,09,21,06,42,10.00
2009,09,21,06,43,9.90
2009,09,21,06,44,9.90
2009,09,21,06,45,9.90
2009,09,21,06,46,9.90
2009,09,21,06,47,9.90
2009,09,21,06,48,9.90
2009,09,21,06,49,9.90
2009,09,21,06,50,9.90
2009,09,21,06,51,9.90
2009,09,21,06,52,9.90
2009,09,21,06,53,9.90
2009,09,21,06,54,9.90
2009,09,21,06,55,9.90
2009,09,21,06,56,9.90
2009,09,21,06,57,9.80
2009,09,21,06,58,9.80
2009,09,21,06,59,9.80
2009,09,21,07,00,9.80
2009,09,21,07,01,9.80
2009,09,21,07,02,9.80
2009,09,21,07,03,9.70
2009,09,21,07,04,9.70
2009,09,21,07,05,9.70
2009,09,21,07,06,9.70
2009,09,21,07,07,9.70
2009,09,21,07,08,9.70
2009,09,21,07,09,9.70
2009,09,21,07,10,9.70
2009,09,21,07,11,9.70
2009,09,21,07,12,9.70
2009,09,21,07,13,9.70
2009,09,21,07,14,9.70
2009,09,21,07,15,9.70
2009,09,21,07,16,9.70
2009,09,21,07,17,9.70
2009,09,21,07,18,9.70
2009,09,21,07,19,9.70
2009,09,21,07,20,9.70
2009,09,21,07,21,9.60
2009,09,21,07,22,9.70
2009,09,21,07,23,9.70
2009,09,21,07,24,9.70
2009,09,21,07,25,9.70
2009,09,21,07,26,9.70
2009,09,21,07,27,9.70
2009,09,21,07,28,9.80
2009,09,21,07,29,9.80
2009,09,21,07,30,9.80
2009,09,21,07,31,9.80
2009,09,21,07,32,9.80
2009,09,21,07,33,9.80
2009,09,21,07,34,9.80
2009,09,21,07,35,9.80
2009,09,21,07,36,9.90
2009,09,21,07,37,9.90
2009,09,21,07,38,9.90
2009,09,21,07,39,9.90
2009,09,21,07,40,9.90
2009,09,21,07,41,9.90
2009,09,21,07,42,9.90
2009,09,21,07,43,9.90
2009,09,21,07,44,10.00
2009,09,21,07,45,10.00
2009,09,21,07,46,10.00
2009,09,21,07,47,10.10
2009,09,21,07,48,10.10
2009,09,21,07,49,10.10
2009,09,21,07,50,10.10
2009,09,21,07,51,10.20
2009,09,21,07,52,10.20
2009,09,21,07,53,10.20
2009,09,21,07,54,10.20
2009,09,21,07,55,10.20
2009,09,21,07,56,10.20
2009,09,21,07,57,10.30
2009,09,21,07,58,10.30
2009,09,21,07,59,10.30
2009,09,21,08,00,10.30
2009,09,21,08,01,10.30
2009,09,21,08,02,10.30
2009,09,21,08,03,10.30
2009,09,21,08,04,10.40
2009,09,21,08,05,10.40
2009,09,21,08,06,10.40
2009,09,21,08,07,10.50
2009,09,21,08,08,10.50
2009,09,21,08,09,10.60
2009,09,21,08,10,10.60
2009,09,21,08,11,10.70
2009,09,21,08,12,10.70
2009,09,21,08,13,10.70
2009,09,21,08,14,10.80
2009,09,21,08,15,10.80
2009,09,21,08,16,10.80
2009,09,21,08,17,10.90
2009,09,21,08,18,10.90
2009,09,21,08,19,10.90
2009,09,21,08,20,10.90
2009,09,21,08,21,11.00
2009,09,21,08,22,11.00
2009,09,21,08,23,11.00
2009,09,21,08,24,11.10
2009,09,21,08,25,11.10
2009,09,21,08,26,11.10
2009,09,21,08,27,11.10
2009,09,21,08,28,11.20
2009,09,21,08,29,11.20
2009,09,21,08,30,11.20
2009,09,21,08,31,11.30
2009,09,21,08,32,11.30
2009,09,21,08,33,11.40
2009,09,21,08,34,11.50
2009,09,21,08,35,11.50
2009,09,21,08,36,11.60
2009,09,21,08,37,11.70
2009,09,21,08,38,11.70
2009,09,21,08,39,11.80
2009,09,21,08,40,11.80
2009,09,21,08,41,11.80
2009,09,21,08,42,11.90
2009,09,21,08,43,11.90
2009,09,21,08,44,12.00
2009,09,21,08,45,12.00
2009,09,21,08,46,12.10
2009,09,21,08,47,12.10
2009,09,21,08,48,12.10
2009,09,21,08,49,12.20
2009,09,21,08,50,12.20
2009,09,21,08,51,12.30
2009,09,21,08,52,12.30
2009,09,21,08,53,12.40
2009,09,21,08,54,12.50
2009,09,21,08,55,12.60
2009,09,21,08,56,12.60
2009,09,21,08,57,12.70
2009,09,21,08,58,12.70
2009,09,21,08,59,12.80
2009,09,21,09,00,12.90
2009,09,21,09,01,13.00
2009,09,21,09,02,13.00
2009,09,21,09,03,13.10
2009,09,21,09,04,13.20
2009,09,21,09,05,13.30
2009,09,21,09,06,13.40
2009,09,21,09,07,13.50
2009,09,21,09,08,13.60
2009,09,21,09,09,13.70
2009,09,21,09,10,13.70
2009,09,21,09,11,13.80
2009,09,21,09,12,13.90
2009,09,21,09,13,14.00
2009,09,21,09,14,14.00
2009,09,21,09,15,14.10
2009,09,21,09,16,14.20
2009,09,21,09,17,14.30
2009,09,21,09,18,14.40
2009,09,21,09,19,14.60
2009,09,21,09,20,14.70
2009,09,21,09,21,14.80
2009,09,21,09,22,14.80
2009,09,21,09,23,15.00
2009,09,21,09,24,15.00
2009,09,21,09,25,15.00
2009,09,21,09,26,15.00
2009,09,21,09,27,15.10
2009,09,21,09,28,15.20
2009,09,21,09,29,15.30
2009,09,21,09,30,15.40
2009,09,21,09,31,15.40
2009,09,21,09,32,15.50
2009,09,21,09,33,15.60
2009,09,21,09,34,15.60
2009,09,21,09,35,15.60
2009,09,21,09,36,15.60
2009,09,21,09,37,15.60
2009,09,21,09,38,15.70
2009,09,21,09,39,15.70
2009,09,21,09,40,15.70
2009,09,21,09,41,15.70
2009,09,21,09,42,15.70
2009,09,21,09,43,15.70
2009,09,21,09,44,15.60
2009,09,21,09,45,15.60
2009,09,21,09,46,15.60
2009,09,21,09,47,15.70
2009,09,21,09,48,15.80
2009,09,21,09,49,15.80
2009,09,21,09,50,15.90
2009,09,21,09,51,15.90
2009,09,21,09,52,15.90
2009,09,21,09,53,15.90
2009,09,21,09,54,15.80
2009,09,21,09,55,15.80
2009,09,21,09,56,15.80
2009,09,21,09,57,15.80
2009,09,21,09,58,15.80
2009,09,21,09,59,15.80
2009,09,21,10,00,15.90
2009,09,21,10,01,15.90
2009,09,21,10,02,15.90
2009,09,21,10,03,16.00
2009,09,21,10,04,16.00
2009,09,21,10,05,16.10
2009,09,21,10,06,16.10
2009,09,21,10,07,16.20
2009,09,21,10,08,16.20
2009,09,21,10,09,16.20
2009,09,21,10,10,16.30
2009,09,21,10,11,16.30
2009,09,21,10,12,16.30
2009,09,21,10,13,16.30
2009,09,21,10,14,16.30
2009,09,21,10,15,16.30
2009,09,21,10,16,16.40
2009,09,21,10,17,16.40
2009,09,21,10,18,16.40
2009,09,21,10,19,16.40
2009,09,21,10,20,16.40
2009,09,21,10,21,16.40
2009,09,21,10,22,16.40
2009,09,21,10,23,16.50
2009,09,21,10,24,16.50
2009,09,21,10,25,16.60
2009,09,21,10,26,16.70
2009,09,21,10,27,16.80
2009,09,21,10,28,16.80
2009,09,21,10,29,16.80
2009,09,21,10,30,16.90
2009,09,21,10,31,16.90
2009,09,21,10,32,16.90
2009,09,21,10,33,16.90
2009,09,21,10,34,16.90
2009,09,21,10,35,17.00
2009,09,21,10,36,16.90
2009,09,21,10,37,17.00
2009,09,21,10,38,17.00
2009,09,21,10,39,17.10
2009,09,21,10,40,17.10
2009,09,21,10,41,17.20
2009,09,21,10,42,17.20
2009,09,21,10,43,17.30
2009,09,21,10,44,17.30
2009,09,21,10,45,17.30
2009,09,21,10,46,17.30
2009,09,21,10,47,17.20
2009,09,21,10,48,17.20
2009,09,21,10,49,17.20
2009,09,21,10,50,17.20
2009,09,21,10,51,17.20
2009,09,21,10,52,17.20
2009,09,21,10,53,17.20
2009,09,21,10,54,17.20
2009,09,21,10,55,17.20
2009,09,21,10,56,17.20
2009,09,21,10,57,17.20
2009,09,21,10,58,17.10
2009,09,21,10,59,17.10
2009,09,21,11,00,17.00
2009,09,21,11,01,17.00
2009,09,21,11,02,16.90
2009,09,21,11,03,16.90
2009,09,21,11,04,16.90
2009,09,21,11,05,16.90
2009,09,21,11,06,16.90
2009,09,21,11,07,17.00
2009,09,21,11,08,17.10
2009,09,21,11,09,17.20
2009,09,21,11,10,17.30
2009,09,21,11,11,17.30
2009,09,21,11,12,17.40
2009,09,21,11,13,17.50
2009,09,21,11,14,17.60
2009,09,21,11,15,17.60
2009,09,21,11,16,17.60
2009,09,21,11,17,17.60
2009,09,21,11,18,17.60
2009,09,21,11,19,17.60
2009,09,21,11,20,17.60
2009,09,21,11,21,17.60
2009,09,21,11,22,17.70
2009,09,21,11,23,17.70
2009,09,21,11,24,17.70
2009,09,21,11,25,17.70
2009,09,21,11,26,17.70
2009,09,21,11,27,17.80
2009,09,21,11,28,17.90
2009,09,21,11,29,18.00
2009,09,21,11,30,18.00
2009,09,21,11,31,18.10
2009,09,21,11,32,18.20
2009,09,21,11,33,18.20
2009,09,21,11,34,18.30
2009,09,21,11,35,18.30
2009,09,21,11,36,18.40
2009,09,21,11,37,18.40
2009,09,21,11,38,18.40
2009,09,21,11,39,18.40
2009,09,21,11,40,18.40
2009,09,21,11,41,18.30
2009,09,21,11,42,18.30
2009,09,21,11,43,18.30
2009,09,21,11,44,18.30
2009,09,21,11,45,18.40
2009,09,21,11,46,18.50
2009,09,21,11,47,18.50
2009,09,21,11,48,18.60
2009,09,21,11,49,18.60
2009,09,21,11,50,18.60
2009,09,21,11,51,18.50
2009,09,21,11,52,18.40
2009,09,21,11,53,18.40
2009,09,21,11,54,18.30
2009,09,21,11,55,18.20
2009,09,21,11,56,18.20
2009,09,21,11,57,18.20
2009,09,21,11,58,18.20
2009,09,21,11,59,18.20
2009,09,21,12,00,18.20
2009,09,21,12,01,18.30
2009,09,21,12,02,18.30
2009,09,21,12,03,18.30
2009,09,21,12,04,18.30
2009,09,21,12,05,18.30
2009,09,21,12,06,18.30
2009,09,21,12,07,18.30
2009,09,21,12,08,18.40
2009,09,21,12,09,18.40
2009,09,21,12,10,18.50
2009,09,21,12,11,18.60
2009,09,21,12,12,18.60
2009,09,21,12,13,18.60
2009,09,21,12,14,18.70
2009,09,21,12,15,18.70
2009,09,21,12,16,18.80
2009,09,21,12,17,18.80
2009,09,21,12,18,18.80
2009,09,21,12,19,18.80
2009,09,21,12,20,18.70
2009,09,21,12,21,18.60
2009,09,21,12,22,18.60
2009,09,21,12,23,18.60
2009,09,21,12,24,18.60
2009,09,21,12,25,18.60
2009,09,21,12,26,18.70
2009,09,21,12,27,18.70
2009,09,21,12,28,18.80
2009,09,21,12,29,18.80
2009,09,21,12,30,18.90
2009,09,21,12,31,18.90
2009,09,21,12,32,18.90
2009,09,21,12,33,18.90
2009,09,21,12,34,18.90
2009,09,21,12,35,18.70
2009,09,21,12,36,18.60
2009,09,21,12,37,18.50
2009,09,21,12,38,18.40
2009,09,21,12,39,18.40
2009,09,21,12,40,18.40
2009,09,21,12,41,18.40
2009,09,21,12,42,18.40
2009,09,21,12,43,18.30
2009,09,21,12,44,18.30
2009,09,21,12,45,18.30
2009,09,21,12,46,18.30
2009,09,21,12,47,18.30
2009,09,21,12,48,18.30
2009,09,21,12,49,18.40
2009,09,21,12,50,18.40
2009,09,21,12,51,18.60
2009,09,21,12,52,18.70
2009,09,21,12,53,18.70
2009,09,21,12,54,18.80
2009,09,21,12,55,18.90
2009,09,21,12,56,19.00
2009,09,21,12,57,19.00
2009,09,21,12,58,19.10
2009,09,21,12,59,19.20
2009,09,21,13,00,19.10
2009,09,21,13,01,19.10
2009,09,21,13,02,19.00
2009,09,21,13,03,19.10
2009,09,21,13,04,19.10
2009,09,21,13,05,19.10
2009,09,21,13,06,19.20
2009,09,21,13,07,19.10
2009,09,21,13,08,19.10
2009,09,21,13,09,19.20
2009,09,21,13,10,19.20
2009,09,21,13,11,19.20
2009,09,21,13,12,19.20
2009,09,21,13,13,19.30
2009,09,21,13,14,19.30
2009,09,21,13,15,19.20
2009,09,21,13,16,19.30
2009,09,21,13,17,19.30
2009,09,21,13,18,19.30
2009,09,21,13,19,19.30
2009,09,21,13,20,19.40
2009,09,21,13,21,19.40
2009,09,21,13,22,19.40
2009,09,21,13,23,19.40
2009,09,21,13,24,19.40
2009,09,21,13,25,19.40
2009,09,21,13,26,19.30
2009,09,21,13,27,19.30
2009,09,21,13,28,19.20
2009,09,21,13,29,19.20
2009,09,21,13,30,19.30
2009,09,21,13,31,19.30
2009,09,21,13,32,19.30
2009,09,21,13,33,19.30
2009,09,21,13,34,19.30
2009,09,21,13,35,19.40
2009,09,21,13,36,19.40
2009,09,21,13,37,19.50
2009,09,21,13,38,19.60
2009,09,21,13,39,19.70
2009,09,21,13,40,19.80
2009,09,21,13,41,19.90
2009,09,21,13,42,20.10
2009,09,21,13,43,20.20
2009,09,21,13,44,20.30
2009,09,21,13,45,20.30
2009,09,21,13,46,20.40
2009,09,21,13,47,20.40
2009,09,21,13,48,20.50
2009,09,21,13,49,20.50
2009,09,21,13,50,20.60
2009,09,21,13,51,20.60
2009,09,21,13,52,20.60
2009,09,21,13,53,20.60
2009,09,21,13,54,20.50
2009,09,21,13,55,20.40
2009,09,21,13,56,20.30
2009,09,21,13,57,20.30
2009,09,21,13,58,20.20
2009,09,21,13,59,20.00
2009,09,21,14,00,19.90
2009,09,21,14,01,19.90
2009,09,21,14,02,20.00
2009,09,21,14,03,20.10
2009,09,21,14,04,20.10
2009,09,21,14,05,20.10
2009,09,21,14,06,20.10
2009,09,21,14,07,20.10
2009,09,21,14,08,20.00
2009,09,21,14,09,19.90
2009,09,21,14,10,19.90
2009,09,21,14,11,19.90
2009,09,21,14,12,19.90
2009,09,21,14,13,19.80
2009,09,21,14,14,19.80
2009,09,21,14,15,19.80
2009,09,21,14,16,19.90
2009,09,21,14,17,20.00
2009,09,21,14,18,20.10
2009,09,21,14,19,20.00
2009,09,21,14,20,20.00
2009,09,21,14,21,19.90
2009,09,21,14,22,20.00
2009,09,21,14,23,20.00
2009,09,21,14,24,19.90
2009,09,21,14,25,19.90
2009,09,21,14,26,19.90
2009,09,21,14,27,19.90
2009,09,21,14,28,19.90
2009,09,21,14,29,19.90
2009,09,21,14,30,19.90
2009,09,21,14,31,19.80
2009,09,21,14,32,19.80
2009,09,21,14,33,19.70
2009,09,21,14,34,19.70
2009,09,21,14,35,19.70
2009,09,21,14,36,19.70
2009,09,21,14,37,19.80
2009,09,21,14,38,19.80
2009,09,21,14,39,19.80
2009,09,21,14,40,19.90
2009,09,21,14,41,19.90
2009,09,21,14,42,20.00
2009,09,21,14,43,20.10
2009,09,21,14,44,20.10
2009,09,21,14,45,20.20
2009,09,21,14,46,20.30
2009,09,21,14,47,20.40
2009,09,21,14,48,20.50
2009,09,21,14,49,20.60
2009,09,21,14,50,20.70
2009,09,21,14,51,20.70
2009,09,21,14,52,20.80
2009,09,21,14,53,20.90
2009,09,21,14,54,21.00
2009,09,21,14,55,21.00
2009,09,21,14,56,21.10
2009,09,21,14,57,21.00
2009,09,21,14,58,21.00
2009,09,21,14,59,21.00
2009,09,21,15,00,21.00
2009,09,21,15,01,21.10
2009,09,21,15,02,21.00
2009,09,21,15,03,21.00
2009,09,21,15,04,21.00
2009,09,21,15,05,21.00
2009,09,21,15,06,21.00
2009,09,21,15,07,21.00
2009,09,21,15,08,21.10
2009,09,21,15,09,21.10
2009,09,21,15,10,21.10
2009,09,21,15,11,21.10
2009,09,21,15,12,21.20
2009,09,21,15,13,21.20
2009,09,21,15,14,21.30
2009,09,21,15,15,21.40
2009,09,21,15,16,21.40
2009,09,21,15,17,21.50
2009,09,21,15,18,21.50
2009,09,21,15,19,21.40
2009,09,21,15,20,21.30
2009,09,21,15,21,21.30
2009,09,21,15,22,21.20
2009,09,21,15,23,21.20
2009,09,21,15,24,21.20
2009,09,21,15,25,21.20
2009,09,21,15,26,21.20
2009,09,21,15,27,21.10
2009,09,21,15,28,21.10
2009,09,21,15,29,21.10
2009,09,21,15,30,21.10
2009,09,21,15,31,21.20
2009,09,21,15,32,21.20
2009,09,21,15,33,21.30
2009,09,21,15,34,21.40
2009,09,21,15,35,21.50
2009,09,21,15,36,21.50
2009,09,21,15,37,21.60
2009,09,21,15,38,21.70
2009,09,21,15,39,21.70
2009,09,21,15,40,21.70
2009,09,21,15,41,21.70
2009,09,21,15,42,21.70
2009,09,21,15,43,21.70
2009,09,21,15,44,21.50
2009,09,21,15,45,21.40
2009,09,21,15,46,21.40
2009,09,21,15,47,21.30
2009,09,21,15,48,21.20
2009,09,21,15,49,21.10
2009,09,21,15,50,21.00
2009,09,21,15,51,20.80
2009,09,21,15,52,20.80
2009,09,21,15,53,20.80
2009,09,21,15,54,20.80
2009,09,21,15,55,20.80
2009,09,21,15,56,20.70
2009,09,21,15,57,20.60
2009,09,21,15,58,20.40
2009,09,21,15,59,20.20
2009,09,21,16,00,20.00
2009,09,21,16,01,19.90
2009,09,21,16,02,19.80
2009,09,21,16,03,19.80
2009,09,21,16,04,19.70
2009,09,21,16,05,19.70
2009,09,21,16,06,19.70
2009,09,21,16,07,19.70
2009,09,21,16,08,19.70
2009,09,21,16,09,19.80
2009,09,21,16,10,19.80
2009,09,21,16,11,19.90
2009,09,21,16,12,19.90
2009,09,21,16,13,20.00
2009,09,21,16,14,20.10
2009,09,21,16,15,20.10
2009,09,21,16,16,20.10
2009,09,21,16,17,20.10
2009,09,21,16,18,20.10
2009,09,21,16,19,20.10
2009,09,21,16,20,20.10
2009,09,21,16,21,20.00
2009,09,21,16,22,20.00
2009,09,21,16,23,20.10
2009,09,21,16,24,20.10
2009,09,21,16,25,20.10
2009,09,21,16,26,20.10
2009,09,21,16,27,20.10
2009,09,21,16,28,20.20
2009,09,21,16,29,20.20
2009,09,21,16,30,20.20
2009,09,21,16,31,20.20
2009,09,21,16,32,20.30
2009,09,21,16,33,20.20
2009,09,21,16,34,20.20
2009,09,21,16,35,20.20
2009,09,21,16,36,20.20
2009,09,21,16,37,20.20
2009,09,21,16,38,20.30
2009,09,21,16,39,20.30
2009,09,21,16,40,20.30
2009,09,21,16,41,20.40
2009,09,21,16,42,20.40
2009,09,21,16,43,20.40
2009,09,21,16,44,20.40
2009,09,21,16,45,20.40
2009,09,21,16,46,20.50
2009,09,21,16,47,20.50
2009,09,21,16,48,20.60
2009,09,21,16,49,20.60
2009,09,21,16,50,20.60
2009,09,21,16,51,20.70
2009,09,21,16,52,20.80
2009,09,21,16,53,20.80
2009,09,21,16,54,20.90
2009,09,21,16,55,21.00
2009,09,21,16,56,21.00
2009,09,21,16,57,21.10
2009,09,21,16,58,21.10
2009,09,21,16,59,21.10
2009,09,21,17,00,21.10
2009,09,21,17,01,21.00
2009,09,21,17,02,21.00
2009,09,21,17,03,20.90
2009,09,21,17,04,20.80
2009,09,21,17,05,20.70
2009,09,21,17,06,20.60
2009,09,21,17,07,20.50
2009,09,21,17,08,20.40
2009,09,21,17,09,20.30
2009,09,21,17,10,20.30
2009,09,21,17,11,20.20
2009,09,21,17,12,20.20
2009,09,21,17,13,20.10
2009,09,21,17,14,20.00
2009,09,21,17,15,20.00
2009,09,21,17,16,19.90
2009,09,21,17,17,19.80
2009,09,21,17,18,19.60
2009,09,21,17,19,19.50
2009,09,21,17,20,19.40
2009,09,21,17,21,19.30
2009,09,21,17,22,19.20
2009,09,21,17,23,19.00
2009,09,21,17,24,18.90
2009,09,21,17,25,18.80
2009,09,21,17,26,18.70
2009,09,21,17,27,18.60
2009,09,21,17,28,18.50
2009,09,21,17,29,18.40
2009,09,21,17,30,18.30
2009,09,21,17,31,18.20
2009,09,21,17,32,18.10
2009,09,21,17,33,18.00
2009,09,21,17,34,17.90